Stations météo

réclame
Mon MeteoGroup
Perpignan, France (7747): Température de l'air & dewpoint: 10.06.2019 02:00:00 - 16.06.2019 02:00:00 (CEST)Perpignan, France (7747): Température de l'air 5cm: 10.06.2019 02:00:00 - 16.06.2019 02:00:00 (CEST)Perpignan, France (7747): Température de l'air -20cm & Température de l'air -100cm: 10.06.2019 02:00:00 - 16.06.2019 02:00:00 (CEST)Perpignan, France (7747): Vitesse du vent & gusts: 10.06.2019 02:00:00 - 16.06.2019 02:00:00 (CEST)Perpignan, France (7747): Direction du vent: 10.06.2019 02:00:00 - 16.06.2019 02:00:00 (CEST)Perpignan, France (7747): reduced air pressure: 10.06.2019 02:00:00 - 16.06.2019 02:00:00 (CEST)Perpignan, France (7747): visibility: 10.06.2019 02:00:00 - 16.06.2019 02:00:00 (CEST)Perpignan, France (7747): Quantités de précipitations: 10.06.2019 02:00:00 - 16.06.2019 02:00:00 (CEST)
Date & Time tt [°C] td [°C] tt 5cm [°C] tt -20cm [°C] tt -100cm [°C] ff [km/h] ff [knt] fx [km/h] fx [knt] dd ppp [hPa] vv [km] rr [mm]
16.06.2019 02:00:00 17,0 10,1 13,9 22,9 20,8 10 5 27 15 WNW 1021,4 60 0,0
16.06.2019 01:00:00 17,9 10,5 14,8 23,1 20,8 12 7 25 13 WNW 1021,4 60 0,0
16.06.2019 00:00:00 18,1 10,7 16,3 23,3 20,8 11 6 36 19 WNW 1021,2 60 0,0
15.06.2019 23:00:00 18,7 11,0 18,2 23,4 20,8 21 11 46 25 NW 1020,7 60 0,0
15.06.2019 22:00:00 18,9 11,0 18,3 23,5 20,8 22 12 59 32 NW 1020,0 60 0,0
15.06.2019 21:00:00 19,5 10,8 19,2 23,5 20,8 32 17 54 29 NW 1019,4 57 0,0
15.06.2019 20:00:00 19,6 10,8 20,2 23,5 20,8 28 15 59 32 NW 1018,8 48 0,0
15.06.2019 19:00:00 20,4 11,3 21,8 23,5 20,9 37 20 61 33 NW 1018,5 60 0,0
15.06.2019 18:00:00 20,1 11,3 22,5 23,3 20,8 30 16 55 30 NW 1018,4 43 0,0
15.06.2019 17:00:00 20,5 11,7 24,0 23,1 20,8 34 19 52 28 NW 1018,2 46 0,0
15.06.2019 16:00:00 21,8 11,5 25,9 22,8 20,8 29 16 50 27 NW 1017,7 32 0,0
15.06.2019 15:00:00 21,2 12,1 26,6 22,5 20,9 29 16 47 25 NW 1017,8 37 0,0
15.06.2019 14:00:00 21,9 13,0 28,5 22,2 20,8 26 14 47 25 NW 1017,7 38 0,0
15.06.2019 13:00:00 23,0 14,3 27,8 22,0 20,8 21 11 36 19 NW 1017,5 36 0,0
15.06.2019 12:00:00 21,7 13,8 24,8 21,8 20,8 14 7 32 17 NNW 1017,4 43 0,0
15.06.2019 11:00:00 21,0 13,4 25,3 21,7 20,8 19 10 31 17 NW 1017,1 39 0,0
15.06.2019 10:00:00 21,9 13,5 26,0 21,7 20,8 16 8 28 15 NNW 1016,8 49 0,0
15.06.2019 09:00:00 20,5 13,7 18,3 21,8 20,8 12 7 26 14 NW 1016,4 39 0,0
15.06.2019 08:00:00 17,8 12,9 16,6 22,0 20,7 13 7 22 12 NW 1015,7 50 0,0
15.06.2019 07:00:00 16,7 13,0 14,5 22,2 20,9 3 1 20 11 WSW 1015,6 60 0,0
15.06.2019 06:00:00 16,9 12,8 14,9 22,3 20,8 10 6 30 16 NNW 1015,1 60 0,0
15.06.2019 05:00:00 17,3 13,4 15,1 22,5 20,8 11 6 26 14 NW 1014,9 60 0,0
15.06.2019 04:00:00 17,2 13,5 14,5 22,7 20,8 7 4 22 12 WNW 1014,4 60 0,0
15.06.2019 03:00:00 17,6 13,7 15,0 22,9 20,7 14 8 22 12 NW 1014,2 60 0,0
15.06.2019 02:00:00 17,8 13,7 14,2 23,1 20,8 13 7 23 13 NW 1014,1 60 0,0
15.06.2019 01:00:00 17,4 14,1 14,2 23,3 20,7 4 2 25 14 W 1014,1 60 0,0
15.06.2019 00:00:00 18,5 14,0 15,0 23,4 20,8 14 8 23 12 WNW 1013,8 60 0,0
14.06.2019 23:00:00 19,1 13,7 15,6 23,6 20,7 5 3 19 10 NW 1013,2 60 0,0
14.06.2019 22:00:00 20,0 14,6 17,8 23,7 20,8 9 5 23 12 NW 1012,0 18 0,0
14.06.2019 21:00:00 21,5 14,6 20,2 23,7 20,8 15 8 28 15 NW 1010,8 56 0,0
14.06.2019 20:00:00 21,9 14,8 21,6 23,6 20,8 22 12 52 28 NW 1010,1 49 0,0
14.06.2019 19:00:00 21,9 14,8 22,7 23,5 20,8 34 19 59 32 NW 1009,9 38 0,0
14.06.2019 18:00:00 26,9 13,3 31,7 23,3 20,8 8 4 19 11 NNE 1008,6 46 0,0
14.06.2019 17:00:00 25,8 11,9 29,5 23,0 20,7 9 5 28 15 ENE 1007,9 57 0,0
14.06.2019 16:00:00 25,5 11,3 28,8 22,9 20,8 9 5 24 13 NE 1009,0 58 0,0
14.06.2019 15:00:00 24,8 10,6 26,1 22,6 20,8 10 5 16 9 NE 1009,0 60 0,0
14.06.2019 14:00:00 25,6 11,7 23,6 22,4 20,6 5 3 25 13 N 1009,3 60 0,0
14.06.2019 13:00:00 22,9 12,2 - - - 18 10 29 16 NE 1008,3 60 0,0
14.06.2019 12:00:00 23,8 13,6 28,7 22,1 20,7 16 9 30 16 WNW 1010,9 60 0,0
14.06.2019 11:00:00 22,2 13,8 23,5 22,1 20,7 16 9 24 13 W 1011,6 25 0,0
14.06.2019 10:00:00 20,1 13,8 17,5 22,2 20,7 11 6 27 14 NW 1011,4 46 0,0
14.06.2019 09:00:00 15,7 14,1 14,1 22,3 20,8 10 5 25 13 WNW 1012,3 40 2,8
14.06.2019 08:00:00 15,0 13,0 15,0 22,5 20,7 9 5 18 10 W 1012,7 17 0,4
14.06.2019 07:00:00 15,0 13,9 14,8 22,7 20,7 6 4 16 8 W 1012,8 6 1,6
14.06.2019 06:00:00 15,6 14,1 14,7 22,9 20,7 11 6 24 13 WNW 1013,5 34 0,2
14.06.2019 05:00:00 15,6 14,8 13,5 23,1 20,7 7 4 13 7 NW 1013,7 33 0,0
14.06.2019 04:00:00 15,5 14,7 13,3 23,4 20,7 8 4 10 6 NNE 1012,6 17 0,0
14.06.2019 03:00:00 15,2 14,2 13,6 23,6 20,7 9 5 14 8 NE 1012,9 25 0,0
14.06.2019 02:00:00 15,6 14,1 14,6 23,8 20,7 9 5 18 10 ENE 1013,7 36 0,0
14.06.2019 01:00:00 15,9 14,3 13,9 24,0 20,7 12 6 21 11 ENE 1014,2 45 0,0
14.06.2019 00:00:00 15,9 13,9 13,4 24,2 20,7 9 5 15 8 NE 1014,2 50 0,0
13.06.2019 23:00:00 16,5 12,3 14,3 24,4 20,7 7 4 15 8 NNE 1013,8 59 0,0
13.06.2019 22:00:00 17,4 12,1 15,9 24,6 20,8 8 4 18 10 NNE 1013,0 60 0,0
13.06.2019 21:00:00 18,1 13,2 18,2 24,6 20,7 11 6 24 13 E 1013,2 60 0,0
13.06.2019 20:00:00 18,9 12,4 20,1 24,5 20,7 15 8 41 22 ESE 1013,3 59 0,0
13.06.2019 19:00:00 20,3 12,5 21,8 24,3 20,8 24 13 44 24 ESE 1012,8 37 0,0
13.06.2019 18:00:00 21,7 10,8 24,8 23,9 20,7 29 16 46 25 SE 1012,6 30 0,0
13.06.2019 17:00:00 22,6 8,7 27,0 23,4 20,8 33 18 50 27 ESE 1013,0 31 0,0
13.06.2019 16:00:00 23,3 7,4 28,0 22,9 20,7 31 17 53 29 ESE 1013,1 32 0,0
13.06.2019 15:00:00 22,9 7,8 26,7 22,3 20,8 33 18 50 27 ESE 1013,6 37 0,0
13.06.2019 14:00:00 24,3 9,8 33,7 21,7 20,8 29 15 43 23 ESE 1013,8 43 0,0
13.06.2019 13:00:00 24,7 10,9 33,1 21,3 20,7 23 13 40 21 SE 1013,9 48 0,0
13.06.2019 12:00:00 23,9 10,2 33,1 20,9 20,8 23 13 39 21 E 1014,2 56 0,0
13.06.2019 11:00:00 21,8 12,1 29,4 20,8 20,8 15 8 26 14 ESE 1014,5 60 0,0
13.06.2019 10:00:00 19,9 13,6 23,2 20,8 20,7 14 7 21 11 E 1014,8 54 0,0
13.06.2019 09:00:00 17,6 14,1 15,6 20,9 20,8 9 5 18 10 ENE 1014,9 20 0,0
13.06.2019 08:00:00 14,7 12,0 11,3 21,1 20,8 5 3 7 4 N 1014,9 35 0,0
13.06.2019 07:00:00 11,3 10,4 8,5 21,4 20,8 4 2 6 3 WSW 1014,9 27 0,0
13.06.2019 06:00:00 10,8 9,6 8,8 21,6 20,8 0 0 8 5 N 1014,7 37 0,0
13.06.2019 05:00:00 11,3 9,7 9,7 21,8 20,8 7 4 11 6 W 1014,4 45 0,0
13.06.2019 04:00:00 11,6 10,2 9,7 22,1 20,8 8 5 10 6 WSW 1014,5 44 0,0
13.06.2019 03:00:00 12,2 10,4 10,0 22,3 20,9 6 4 9 5 WSW 1014,8 56 0,0
13.06.2019 02:00:00 12,7 10,8 10,5 22,5 20,9 5 3 8 4 WSW 1015,3 54 0,0
13.06.2019 01:00:00 13,1 11,3 11,7 22,7 20,8 5 3 12 6 W 1015,5 49 0,0
13.06.2019 00:00:00 14,4 12,1 13,0 22,9 20,9 7 4 11 6 WSW 1016,0 50 0,0
12.06.2019 23:00:00 15,4 12,9 13,1 23,1 20,9 9 5 11 6 W 1015,6 46 0,0
12.06.2019 22:00:00 16,4 12,9 15,3 23,1 20,8 3 1 11 6 SW 1015,2 50 0,0
12.06.2019 21:00:00 17,3 12,2 17,5 23,2 20,9 5 3 15 8 S 1015,0 57 0,0
12.06.2019 20:00:00 17,8 11,6 18,5 23,1 20,9 10 5 22 12 SE 1014,8 60 0,0
12.06.2019 19:00:00 18,7 10,5 21,0 22,9 20,9 12 6 22 12 SE 1014,3 52 0,0
12.06.2019 18:00:00 18,7 10,0 20,9 22,5 20,9 13 7 28 15 SE 1014,4 53 0,0
12.06.2019 17:00:00 20,3 9,5 28,1 21,9 21,0 19 10 42 23 SE 1014,5 40 0,0
12.06.2019 16:00:00 20,8 9,4 30,8 21,3 20,9 21 11 38 21 SE 1014,4 44 0,0
12.06.2019 15:00:00 21,3 8,5 29,8 20,8 20,9 20 11 31 17 SE 1014,5 48 0,0
12.06.2019 14:00:00 21,5 9,1 30,3 20,3 20,9 14 7 29 16 SE 1014,6 53 0,0
12.06.2019 13:00:00 20,6 6,5 26,7 19,9 21,0 7 4 22 12 SSE 1014,9 50 0,0
12.06.2019 12:00:00 19,0 6,5 29,5 19,6 21,0 5 3 18 10 SSE 1015,0 55 0,0
12.06.2019 11:00:00 18,8 7,6 28,0 19,5 20,9 4 2 21 11 SE 1015,1 50 0,0
12.06.2019 10:00:00 16,7 7,1 20,5 19,5 21,1 5 3 15 8 SSW 1015,4 54 0,0
12.06.2019 09:00:00 14,7 6,8 13,1 19,6 21,1 9 5 19 10 SW 1015,7 44 0,0
12.06.2019 08:00:00 12,4 7,3 8,7 19,7 21,0 13 7 18 10 WSW 1015,0 45 0,0
12.06.2019 07:00:00 9,1 6,5 7,2 19,9 21,0 10 5 19 11 WSW 1014,9 60 0,0
12.06.2019 06:00:00 8,2 6,5 7,2 20,1 21,0 13 7 18 10 WSW 1014,4 60 0,0
12.06.2019 05:00:00 9,0 6,8 7,3 20,3 21,0 9 5 19 10 W 1014,2 60 0,0
12.06.2019 04:00:00 10,9 5,8 7,8 20,5 21,1 9 5 27 14 SW 1014,2 60 0,0
12.06.2019 03:00:00 12,5 6,1 8,4 20,7 20,9 13 7 24 13 NW 1014,2 60 0,0
12.06.2019 02:00:00 11,9 6,4 8,5 20,9 21,0 7 4 14 8 WNW 1014,6 60 0,0
12.06.2019 01:00:00 12,5 7,0 9,4 21,0 20,9 10 6 23 12 WNW 1014,7 60 0,0
12.06.2019 00:00:00 13,4 7,2 10,8 21,2 21,0 9 5 24 13 WNW 1014,6 60 0,0
11.06.2019 23:00:00 14,1 7,4 12,5 21,3 21,1 11 6 38 21 WNW 1014,6 60 0,0
11.06.2019 22:00:00 14,6 7,2 12,5 21,4 21,0 16 9 31 17 NW 1014,4 60 0,0
11.06.2019 21:00:00 14,6 8,1 13,3 21,5 21,0 9 5 18 10 NW 1014,1 60 0,0
11.06.2019 20:00:00 14,8 8,3 13,3 21,6 21,0 16 9 30 16 NW 1013,9 60 0,0
11.06.2019 19:00:00 15,2 10,8 15,3 21,6 21,0 14 8 22 12 NW 1013,0 60 0,0
11.06.2019 18:00:00 14,9 10,9 15,8 21,7 21,0 9 5 18 10 NW 1013,2 60 0,2
11.06.2019 17:00:00 14,5 12,0 15,6 21,8 21,0 8 5 14 7 WNW 1013,9 27 0,4
11.06.2019 16:00:00 13,7 11,2 13,4 21,9 21,1 6 4 21 12 W 1013,8 28 0,8
11.06.2019 15:00:00 13,3 11,0 13,0 22,0 21,0 12 7 26 14 NW 1013,7 18 0,8
11.06.2019 14:00:00 13,2 11,3 13,9 22,1 20,9 8 4 17 9 WNW 1013,9 31 1,2
11.06.2019 13:00:00 13,1 10,8 14,6 22,2 21,1 8 4 16 9 WSW 1014,1 8 1,0
11.06.2019 12:00:00 13,0 10,5 14,2 22,4 21,0 9 5 16 9 W 1013,8 21 0,8
11.06.2019 11:00:00 12,6 10,7 12,6 22,6 21,0 8 5 21 11 W 1013,4 29 0,6
11.06.2019 10:00:00 11,9 10,0 11,5 22,8 20,9 12 6 29 16 WNW 1013,3 20 1,2
11.06.2019 09:00:00 11,8 10,0 11,2 23,1 21,0 15 8 31 17 WNW 1013,1 14 2,2
11.06.2019 08:00:00 12,0 10,1 11,4 23,2 20,9 16 8 30 16 NW 1012,8 4,8 2,6
11.06.2019 07:00:00 13,4 10,7 12,3 23,4 21,0 18 10 32 17 WNW 1012,1 24 0,4
11.06.2019 06:00:00 14,7 10,1 12,9 23,6 20,9 14 8 24 13 NNW 1012,1 27 0,0
11.06.2019 05:00:00 15,2 9,1 14,7 23,8 21,0 14 8 26 14 NW 1012,5 60 0,0
11.06.2019 04:00:00 15,6 9,0 15,2 23,9 20,9 15 8 27 15 NW 1013,0 60 0,0
11.06.2019 03:00:00 15,9 9,1 15,6 24,1 20,9 15 8 29 15 NW 1013,8 60 0,0
11.06.2019 02:00:00 16,0 8,7 15,6 24,3 20,9 8 5 32 17 WNW 1014,2 60 0,0
11.06.2019 01:00:00 16,4 8,6 16,4 24,5 20,9 16 9 37 20 NW 1014,2 60 0,0
11.06.2019 00:00:00 16,7 8,6 16,6 24,7 20,9 23 13 39 21 NW 1014,5 60 0,0
10.06.2019 23:00:00 17,1 8,5 16,8 24,9 20,9 18 10 39 21 NW 1014,7 60 0,0
10.06.2019 22:00:00 17,0 8,7 13,7 25,1 20,9 22 12 43 23 NW 1014,1 60 0,0
10.06.2019 21:00:00 16,5 9,9 13,4 25,2 20,9 27 15 49 27 NW 1013,8 44 0,0
10.06.2019 20:00:00 17,9 9,3 18,8 25,2 20,9 24 13 51 28 NW 1013,7 60 0,0
10.06.2019 19:00:00 18,0 9,1 19,0 25,1 20,9 35 19 61 33 NW 1013,5 33 0,0
10.06.2019 18:00:00 18,5 9,6 20,7 24,9 20,9 39 21 68 37 NW 1013,4 20 0,0
10.06.2019 17:00:00 21,6 10,7 25,8 24,6 20,9 39 21 67 36 NW 1012,6 16 0,0
10.06.2019 16:00:00 21,5 10,3 25,1 24,1 20,8 40 22 67 36 NW 1012,9 20 0,0
10.06.2019 15:00:00 23,1 10,5 31,5 23,7 20,9 35 19 61 33 NW 1012,9 21 0,0
10.06.2019 14:00:00 22,3 10,1 32,2 23,3 20,8 41 22 66 36 NW 1013,2 27 0,0
10.06.2019 13:00:00 21,9 9,8 30,7 23,1 20,8 39 21 60 33 WNW 1013,3 32 0,0
10.06.2019 12:00:00 21,9 10,4 29,1 23,1 20,9 34 18 54 29 NW 1013,5 43 0,0
10.06.2019 11:00:00 20,5 10,3 20,0 23,2 20,8 31 17 58 31 NW 1014,1 52 0,0
10.06.2019 10:00:00 18,4 10,7 17,1 23,3 20,8 29 16 65 35 NW 1014,5 39 0,0
10.06.2019 09:00:00 17,5 10,8 14,2 23,5 20,8 35 19 57 31 NW 1014,4 35 0,2
10.06.2019 08:00:00 18,0 10,8 17,5 23,6 20,8 37 20 71 39 NW 1014,2 59 0,0
10.06.2019 07:00:00 18,0 11,1 18,1 23,8 20,8 40 21 67 36 NW 1013,9 60 0,0
10.06.2019 06:00:00 18,4 11,2 18,2 24,0 20,8 35 19 61 33 NW 1013,8 49 0,0
10.06.2019 05:00:00 19,0 11,3 18,4 24,1 20,8 34 18 52 28 NW 1014,1 58 0,0
10.06.2019 04:00:00 19,4 11,9 18,2 24,3 20,8 16 9 42 23 NNW 1014,3 60 0,0
10.06.2019 03:00:00 20,2 12,9 19,7 24,4 20,7 26 14 48 26 NNW 1014,7 57 0,0
10.06.2019 02:00:00 21,0 13,2 20,2 24,6 20,7 29 16 52 28 NW 1015,2 52 0,0

tt = Température de l'air
td = dewpoint
tt 5cm = Température de l'air 5cm
tt -20cm = Température de l'air -20cm
tt -100cm = Température de l'air -100cm
ff = Vitesse du vent
fx = gusts
dd = Direction du vent
ppp = reduced air pressure
vv = visibility
rr = Quantités de précipitations

stations d'obs. à proximité